Location: Beaurecueil
(43.5122°N, 5.5450°E)
Time: 04:15:20
(UTC+00:00)

Meteor 1-21 - Pass Details

Date: 26 June 2021
Orbit: 846 x 885 km, 81.2° (Epoch: 03 August)

Event Time Altitude Azimuth Distance (km) Brightness Sun altitude
Rises 20:36:24 0° 238° (WSW) 3,413 7.5 -10.9°
Reaches altitude 10° 20:39:49 10° 259° (W) 2,477 7.1 -11.3°
Maximum altitude 20:43:12 16° 297° (WNW) 2,072 7.3 -11.7°
Drops below altitude 10° 20:46:37 10° 334° (NNW) 2,479 8.0 -12.1°
Sets 20:50:03 0° 356° (N) 3,419 8.3 -12.5°
